Montana Department of Transportation

Main Content

Accidents and Incidents Report

Hourly Weather Roundup

ASUS45 KTFX 290010
RWRMT 
MONTANA REGIONAL WEATHER ROUNDUP
NATIONAL WEATHER SERVICE GREAT FALLS MT
600 PM MDT FRI AUG 28 2015

NOTE: "FAIR" INDICATES FEW OR NO CLOUDS BELOW 12000 FEET WITH NO
SIGNIFICANT WEATHER AND/OR OBSTRUCTIONS TO VISIBILITY.

MTZ001.007-043-290100-
WEST OF THE DIVIDE
  
CITY           SKY/WX    TMP DP  RH WIND       PRES   REMARKS
KALISPELL      CLOUDY    81  39  22 W9        29.94S SMOKE            
MISSOULA       CLOUDY    76  42  29 E5        30.00S HAZE             
BUTTE          PTSUNNY   81  34  18 SW5       30.10S HAZE             
MULLAN PASS    CLOUDY    61  39  44 CALM      30.15F                  
DEER LODGE       N/A     82  36  18 NW13G20   30.06R                  
EUREKA           N/A     77  43  29 CALM      29.98F                  
HAMILTON         N/A     81  39  22 N13       30.00R                  
LIBBY            N/A     81  43  26 CALM      29.95F                  
PLAINS           N/A     80  43  27 W6        29.98R                  
--------------------------------

MTZ008-052.055-290100-
SOUTHWEST MONTANA
  
CITY           SKY/WX    TMP DP  RH WIND       PRES   REMARKS
BOZEMAN        PTSUNNY   82  46  28 NE3       30.04F                  
DILLON         PTSUNNY   84  33  16 S6        30.06S                  
W YELLOWSTONE  PTSUNNY   77  32  19 SW16      30.24S                  
--------------------------------

MTZ009-010-012-014-046-048-049-054-290100-
EAST SLOPES AND CENTRAL MONTANA
  
CITY           SKY/WX    TMP DP  RH WIND       PRES   REMARKS
CUT BANK       CLOUDY    80  35  19 W28G36    29.92S HAZE             
GREAT FALLS    CLOUDY    88  34  14 S9        29.92F HAZE             
MALMSTROM AFB  CLOUDY    88  34  14 SW7       29.91F                  
HELENA         PTSUNNY   90  40  17 NE6       29.93F SMOKE            
CONRAD           N/A     86  42  21 W8        29.94R                  
--------------------------------

MTZ011-013-016-021-045-047-050-051-290100-
NORTH CENTRAL MONTANA
  
CITY           SKY/WX    TMP DP  RH WIND       PRES   REMARKS
HAVRE          PTSUNNY   84  43  23 S7        29.86F HAZE             
LEWISTOWN      PTSUNNY   85  38  18 SE6       30.01S                  
N BAR RANCH      N/A     81  34  18 SE6       30.06S                  
CHINOOK          N/A     88  45  22 CALM      29.87F                  
FORT BENTON      N/A     91  34  13 S8        29.87F                  
--------------------------------

MTZ017.020-022.027-061-062-290100-
NORTHEAST MONTANA
  
CITY           SKY/WX    TMP DP  RH WIND       PRES   REMARKS
GLASGOW        CLOUDY    82  43  25 W5        29.90S HAZE             
JORDAN           N/A     89  37  16 NW7       29.93F                  
SIDNEY         PTSUNNY   84  45  24 W7        29.90R                  
WOLF POINT     CLOUDY    87  41  19 W7        29.89S HAZE             
MALTA            N/A     86  48  26 CALM      29.87F                  
PLENTYWOOD       N/A     82  46  28 W7        29.89S                  
POPLAR           N/A     88  39  18 W6        29.90R                  
--------------------------------

MTZ028.42-056.058-290100-
SOUTHCENTRAL AND SOUTHEAST MONTANA
  
CITY           SKY/WX    TMP DP  RH WIND       PRES   REMARKS
BAKER          CLOUDY    85  45  24 W10       29.99S HAZE             
BILLINGS       PTSUNNY   88  37  16 CALM      30.01F                  
LIVINGSTON     MOSUNNY   86  34  15 NW6       30.04F                  
MILES CITY     CLOUDY    88  43  20 SW9       29.96S HAZE             
EKALAKA          N/A     81  47  30 W5        30.02R                  
FORSYTH          N/A     90  39  17 CALM      29.97R                  
LAUREL           N/A     87  47  24 E2        30.00F                  
--------------------------------

REGIONAL REPORTS...DAKOTAS
  
CITY           SKY/WX    TMP DP  RH WIND       PRES   REMARKS
WILLISTON      PTSUNNY   87  46  24 SW6       29.88S HAZE             
MINOT          MOSUNNY   83  62  49 E5        29.85S                  
DICKINSON      PTSUNNY   86  49  27 W729.92S                  
CROSBY           N/A     82  55  39 CALM      29.86S HAZE             
BISMARCK       MOSUNNY   87  64  46 S3        29.88R                  
GRAND FORKS    PTSUNNY   79  68  69 S15       29.82R                  
FARGO          SUNNY     80  67  64 S16       29.87S                  
BUFFALO SD       N/A     82  51  34 W12       29.94S                  
RAPID CITY     SUNNY     82  66  58 E3        30.03S                  
--------------------------------

REGIONAL REPORTS...WYOMING/IDAHO/WASHINGTON
  
CITY           SKY/WX    TMP DP  RH WIND       PRES   REMARKS
GILLETTE       MOSUNNY   86  40  19 CALM      30.09S                  
SHERIDAN       MOSUNNY   88  42  20 NW5       30.06S HAZE             
BUFFALO WY     SUNNY     85  39  19 SE7       30.14S                  
CODY           PTSUNNY   82  39  21 SE10      30.11F                  
YELLOWSTONE LA   N/A     70  27  20 VRB6      30.37S                  
IDAHO FALLS    PTSUNNY   88  39  17 S14       30.09F                  
SALMON         CLOUDY    79  55  44 NW6       29.96F                  
BOISE          CLOUDY    89  41  18 N9        29.92F                  
SPOKANE        CLOUDY    80  43  26 SW16      29.94R                  
--------------------------------

REGIONAL REPORTS...ALBERTA
  
CITY           SKY/WX    TMP DP  RH WIND       PRES   REMARKS
EDMONTON       SUNNY     82  45  26 SW7       29.66F                  
CALGARY        CLOUDY    75  45  33 W12       29.80S SMOKE            
LETHBRIDGE     PTSUNNY   82  41  23 W13G22    29.84R SMOKE            
MEDICINE HAT   CLOUDY    84  41  21 S6        29.80F SMOKE            
WATERTON GATE    N/A     75  37  25 W20G35      N/A                   
MILK RIVER       N/A     77  37  24 S7          N/A                   
ONEFOUR          N/A     82  32  16 S5          N/A                   
--------------------------------

REGIONAL REPORTS...SASKATCHEWAN
  
CITY           SKY/WX    TMP DP  RH WIND       PRES   REMARKS
SWIFT CURRENT  SUNNY     81  46  30 SW8       29.86S HAZE             
REGINA         CLOUDY    81  61  50 VRB2      29.84S                  
SASKATOON      CLOUDY    77  61  57 S9        29.80F                  
CYPRESS HILLS    N/A     79  34  19 SW8         N/A                   
ROCKGLEN         N/A     77  52  41 W2          N/A                   
--------------------------------